Greenville, ME

4:04 PM EDT on April 30, 2017 (GMT -0400)
Greenville

Weather History for KGNR - January, 2013

Change the Weather History Date:

Saturday, January 5, 2013

  Actual Average (KMLT) Record (KMLT)
Temperature  
Mean Temperature 16 °F -  
Max Temperature 27 °F 25 °F 57 °F (1950)
Min Temperature 6 °F 6 °F -23 °F (1981)
Degree Days  
Heating Degree Days 48    
Moisture  
Dew Point 7 °F    
Average Humidity 70    
Maximum Humidity 88    
Minimum Humidity 52    
Precipitation  
Precipitation 0.05 in - - ()
Sea Level Pressure  
Sea Level Pressure 29.96 in    
Wind  
Wind Speed 6 mph (NW)    
Max Wind Speed 20 mph    
Max Gust Speed 44 mph    
Averages and records for this station are not official NWS values.
T = Trace of Precipitation, MM = Missing Value Source: NWS Daily Summary

Daily Weather History Graph

Daily Weather History Graph

Search for Another Location

Airport or City:

Trip Planner

Search our weather history database for the weather conditions in past years. The results will help you decide how hot, cold, wet, or windy it might be!

Date:

Astronomy

Jan. 05, 2013 Rise Set
Actual Time 7:18 AM EST 4:09 PM EST
Civil Twilight 6:44 AM EST 4:43 PM EST
Nautical Twilight 6:07 AM EST 5:20 PM EST
Astronomical Twilight 5:31 AM EST 5:56 PM EST
Moon 12:10 AM EST (1/5) 11:06 AM EST (1/5)
Length of Visible Light 9h 59m
Length of Day
8h 51m
Last Quarter, 44% of the Moon is Illuminated
Jan 5
Last Quarter
Jan 11
New
Jan 18
First Quarter
Jan 26
Full
Feb 3
Last Quarter

Hourly Weather History & Observations

Time (EST) Temp. Windchill Dew Point Humidity Pressure Visibility Wind Dir Wind Speed Gust Speed Precip Events Conditions
12:56 AM 26.1 °F - 23.0 °F 88% 29.60 in - Calm Calm - N/A   Unknown
1:56 AM 26.1 °F - 23.0 °F 88% 29.60 in - Calm Calm - 0.01 in   Unknown
2:56 AM 26.1 °F 20.5 °F 23.0 °F 88% 29.60 in - Variable 4.6 mph - N/A   Unknown
3:56 AM 26.1 °F 21.9 °F 23.0 °F 88% 29.62 in - Variable 3.5 mph - 0.01 in   Unknown
4:56 AM 27.0 °F 18.7 °F 21.0 °F 78% 29.63 in - West 8.1 mph 19.6 mph N/A   Unknown
5:56 AM 23.0 °F 13.1 °F 15.1 °F 72% 29.72 in - NW 9.2 mph 33.4 mph N/A   Unknown
6:56 AM 23.0 °F 13.9 °F 15.1 °F 72% 29.77 in - WNW 8.1 mph - N/A   Unknown
7:56 AM 19.9 °F 8.6 °F 15.1 °F 81% 29.85 in - NW 10.4 mph 31.1 mph 0.03 in   Unknown
8:56 AM 15.1 °F 3.3 °F 6.1 °F 68% 29.94 in - NW 9.2 mph 43.7 mph N/A   Unknown
9:56 AM 16.0 °F 1.1 °F 3.9 °F 59% 29.99 in - NW 15.0 mph 25.3 mph N/A   Unknown
10:56 AM 14.0 °F -2.0 °F 1.0 °F 56% 30.02 in - NW 16.1 mph 27.6 mph N/A   Unknown
11:56 AM 14.0 °F -3.4 °F -0.0 °F 54% 30.02 in - NW 19.6 mph 32.2 mph N/A   Unknown
12:56 PM 14.0 °F -0.8 °F -0.9 °F 52% 30.03 in - NW 13.8 mph 31.1 mph N/A   Unknown
1:56 PM 14.0 °F 2.9 °F -0.0 °F 54% 30.07 in - WNW 8.1 mph 24.2 mph N/A   Unknown
2:56 PM 12.9 °F -1.6 °F -0.0 °F 56% 30.10 in - NW 12.7 mph 21.9 mph N/A   Unknown
3:56 PM 12.0 °F 1.5 °F -0.0 °F 59% 30.13 in - WNW 6.9 mph - N/A   Unknown
4:56 PM 9.0 °F -0.9 °F -0.9 °F 64% 30.16 in - Variable 5.8 mph - N/A   Unknown
5:56 PM 8.1 °F -6.2 °F -0.9 °F 67% 30.16 in - NW 10.4 mph - N/A   Unknown
6:56 PM 8.1 °F -5.3 °F -0.0 °F 70% 30.17 in - NNW 9.2 mph - N/A   Unknown
7:56 PM 8.1 °F -5.3 °F 1.0 °F 73% 30.19 in - NNW 9.2 mph - N/A   Unknown
8:56 PM 6.1 °F -2.8 °F -0.0 °F 76% 30.20 in - NNW 4.6 mph - N/A   Unknown
9:56 PM 6.1 °F -4.3 °F -0.0 °F 76% 30.18 in - NNE 5.8 mph - N/A   Unknown
10:56 PM 8.1 °F - 1.9 °F 76% 30.21 in - Calm Calm - N/A   Unknown
11:56 PM 7.0 °F - 1.0 °F 77% 30.18 in - Calm Calm - N/A   Unknown